Preview of NWS' New Version of Forecast
This preview is not operational and should not be used for support decisions.

Regional Weather Roundup (RWR)

Issued by National Weather Service (NWS)

                            
000
ASUS44 KMEG 210000
RWRTN 
TENNESSEE HOURLY STATE WEATHER ROUNDUP
NATIONAL WEATHER SERVICE MEMPHIS TN
700 PM CDT WED MAR 20 2019

TNZ002-004-019-021-049-052-054-088>092-210100-
WEST TENNESSEE
  
CITY           SKY/WX    TMP DP  RH WIND       PRES   REMARKS
MEMPHIS INTL   LGT RAIN  49  47  93 NW13      30.11S                  
NWS MEMPHIS      N/A     49 N/A N/A MISG        N/A                   
JACKSON        LGT RAIN  50  44  80 W12       30.11R                  
DYERSBURG      RAIN      48  46  93 SW12      30.12R                  
$$

TNZ008-025-027-028-033-062-065-066-210100-
NORTH MIDDLE TENNESSEE
  
CITY           SKY/WX    TMP DP  RH WIND       PRES   REMARKS
NASHVILLE      MOCLDY    61  26  26 S8        30.02F                  
CLARKSVILLE    CLOUDY    55  29  36 W8        30.04S                  
SMYRNA         FAIR      59  31  34 CALM      30.04F                  
CROSSVILLE     FAIR      52  25  35 W7        30.05S                  
$$

TNZ061-075-076-078-094-096-097-210100-
SOUTH MIDDLE TENNESSEE
  
CITY           SKY/WX    TMP DP  RH WIND       PRES   REMARKS
FAYETTEVILLE   CLEAR     59  28  31 SW5       30.05F                  
$$

TNZ017-018-042-046-047-210100-
NORTHEAST TENNESSEE
  
CITY           SKY/WX    TMP DP  RH WIND       PRES   REMARKS
TRI CITIES     FAIR      54  24  31 CALM      30.05F                  
$$

TNZ012-013-036-069-073-074-210100-
CENTRAL EAST TENNESSEE
  
CITY           SKY/WX    TMP DP  RH WIND       PRES   REMARKS
KNOXVILLE      FAIR      57  22  25 W3        30.04F                  
OAK RIDGE      FAIR      59  20  22 CALM      30.06S                  
$$

TNZ083-085-099-210100-
SOUTHEAST TENNESSEE
  
CITY           SKY/WX    TMP DP  RH WIND       PRES   REMARKS
CHATTANOOGA    MOCLDY    61  24  24 SE3       30.06S                  
$$

SKY/WX REPORTED AS FAIR MEANS FEW OR NO CLOUDS BELOW
12 THOUSAND FEET.